Printer-friendly version

IAU Minor Planet Center

Minor Planet Center

MPEC 2006-L28 : 2006 LD1

The following Minor Planet Electronic Circular may be linked-to from your own Web pages, but must not otherwise be redistributed electronically.


Read MPEC 2006-L27 Read MPEC 2006-L29


M.P.E.C. 2006-L28                                Issued 2006 June 5, 16:35 UT

     The Minor Planet Electronic Circulars contain information on unusual
         minor planets and routine data on comets.  They are published
   on behalf of Commission 20 of the International Astronomical Union by the
          Minor Planet Center, Smithsonian Astrophysical Observatory,
                          Cambridge, MA 02138, U.S.A.

                  Supported in part by the Brinson Foundation
                  Supported in part by the TABASGO Foundation
             Prepared using the Tamkin Foundation Computer Network

                              MPC@CFA.HARVARD.EDU
          URL http://cfa-www.harvard.edu/iau/mpc.html  ISSN 1523-6714

                                   2006 LD1

Observations:
     K06L01D* C2006 06 03.63330 17 43 21.15 -29 49 47.4          17.8 V EL028428
     K06L01D  C2006 06 03.69423 17 43 30.84 -29 54 00.4          17.7 V EL028428
     K06L01D  C2006 06 04.47384 17 46 10.91 -30 52 17.1          17.5 V EL028428
     K06L01D  C2006 06 04.48432 17 46 12.97 -30 53 08.1          17.6 V EL028428
     K06L01D  C2006 06 04.56110 17 46 27.71 -30 59 25.5          17.3 V EL028428
     K06L01D  C2006 06 04.58809 17 46 32.77 -31 01 37.3          17.7 V EL028428
     K06L01D  C2006 06 04.58943 17 46 33.04 -31 01 44.5          17.6 V EL028428
     K06L01D  C2006 06 04.65237 17 46 45.02 -31 06 51.8          17.4 V EL028428
     K06L01D  C2006 06 04.65372 17 46 45.26 -31 06 57.7                 EL028428
     K06L01D  C2006 06 05.15512 17 48 42.53 -31 50 01.4          17.4 R EL028I77
     K06L01D  C2006 06 05.16124 17 48 43.81 -31 50 34.1          17.5 R EL028I77
     K06L01D  C2006 06 05.16253 17 48 44.07 -31 50 40.8          17.4 R EL028I77
     K06L01D  C2006 06 05.16994 17 48 45.63 -31 51 20.3          17.5 R EL028I77
     K06L01D 2C2006 06 05.28488 17 49 15.61 -32 02 29.6          16.5 R EL028H06
     K06L01D 2C2006 06 05.29115 17 49 16.96 -32 03 06.3          16.5 R EL028H06
     K06L01D 2C2006 06 05.29751 17 49 18.29 -32 03 39.2          17.1 R EL028H06
     K06L01D  C2006 06 05.34340 17 49 29.07 -32 07 54.3          16.6 R EL028651
     K06L01D  C2006 06 05.34515 17 49 29.36 -32 08 02.8          17.0 R EL028651
     K06L01D  C2006 06 05.35615 17 49 30.72 -32 09 06.2                 EL028H36
     K06L01D  C2006 06 05.36012 17 49 31.65 -32 09 28.2          17.7 R EL028H36
     K06L01D  C2006 06 05.56700 17 50 28.11 -32 27 51.5                 EL028428
     K06L01D  C2006 06 05.57123 17 50 29.04 -32 28 15.8                 EL028428
     K06L01D  C2006 06 05.58278 17 50 31.71 -32 29 22.3          17.5 V EL028428
     K06L01D  C2006 06 05.59578 17 50 34.81 -32 30 37.9          17.2 V EL028428

Observer details:
428 Reedy Creek.  Observer J. Broughton.  0.51-m f/2.7 reflector + CCD.
651 Grasslands Observatory, Tucson.  Observer J. E. McGaha.  0.62-m f/5.1
    Newtonian reflector + CCD.
H06 New Mexico Skies Observatory.  Observer R. Hutsebaut.  0.25-m reflector
    + CCD.
H36 Sandlot Observatory, Scranton.  Observer G. Hug.  0.30-m
    Schmidt-Cassegrain + CCD.
I77 CEAMIG-REA Observatory, Belo Horizonte.  Observers C. Jacques, E. Pimentel.
    Measurer C. Jacques.  0.30-m f/3.0 Schmidt-Cassegrain + CCD.

Orbital elements:
2006 LD1                                            PHA, Earth MOID = 0.0224 AU
Epoch 2006 Mar. 6.0 TT = JDT 2453800.5                  MPC
M 320.39787              (2000.0)            P               Q
n   0.26910519     Peri.  274.52557     +0.94299021     +0.31859228
a   2.3760450      Node    66.92070     -0.24847145     +0.86635625
e   0.7048421      Incl.    6.00691     -0.22143035     +0.38461123
P   3.66           H   20.9           G   0.15           U   8
Residuals in seconds of arc
060603 428  0.0   0.2-    060604 428  0.3+  0.7+    060605 651  1.2+  1.2-
060603 428  0.1+  0.2-    060605 I77  0.4+  0.3-    060605 651  0.1-  0.1-
060604 428  1.0-  0.4-    060605 I77  0.3+  0.2-    060605 H36  0.0   0.8-
060604 428  0.7-  0.2+    060605 I77  0.1+  0.0     060605 H36  0.4+  1.0-
060604 428  0.4+  0.1+    060605 I77  0.1+  0.1+    060605 428  0.4+  0.0
060604 428  0.1-  0.6+    060605 H06  0.1+  1.0+    060605 428  0.4-  0.2+
060604 428  0.2+  0.0     060605 H06  0.3-  1.0-    060605 428  0.7-  0.7+
060604 428  0.5+  0.0     060605 H06  1.3-  1.2+    060605 428  0.0   0.4+

Ephemeris:
2006 LD1                 a,e,i = 2.38, 0.70, 6                   q = 0.7013
Date    TT    R. A. (2000) Decl.     Delta      r     Elong.  Phase     V
2006 06 04    17 44.51   -30 16.0    0.138    1.148   164.9    13.3    17.7
2006 06 05    17 48.08   -31 36.1    0.127    1.137   164.4    13.9    17.5
2006 06 06    17 52.44   -33 10.7    0.116    1.126   163.6    14.8    17.3
2006 06 07    17 57.88   -35 04.0    0.105    1.115   162.2    16.1    17.1
2006 06 08    18 04.87   -37 21.5    0.0941   1.104   160.4    18.0    16.9
2006 06 09    18 14.19   -40 10.6    0.0837   1.093   157.7    20.6    16.7
2006 06 10    18 27.20   -43 41.1    0.0738   1.082   154.1    24.2    16.5
2006 06 11    18 46.50   -48 04.8    0.0644   1.071   149.2    29.1    16.4
2006 06 12    19 17.49   -53 30.2    0.0558   1.060   142.4    35.7    16.2
2006 06 13    20 12.20   -59 40.0    0.0484   1.049   133.2    44.9    16.1
2006 06 14    21 52.79   -64 33.7    0.0429   1.038   121.1    56.9    16.2
2006 06 15    00 13.55   -63 13.2    0.0399   1.028   106.2    71.6    16.5
2006 06 16    02 01.02   -54 14.7    0.0402   1.017    90.3    87.4    17.0
2006 06 17    03 00.06   -42 45.3    0.0435   1.006    75.8   101.8    17.8
2006 06 18    03 33.16   -32 26.2    0.0493   0.995    64.1   113.4    18.7
2006 06 19    03 53.57   -24 14.9    0.0568   0.985    55.3   122.0    19.6
2006 06 20    04 07.24   -17 58.7    0.0655   0.974    48.8   128.3    20.5
2006 06 21    04 17.00   -13 10.2    0.0749   0.964    44.1   132.8    21.2
2006 06 22    04 24.32   -09 25.6    0.0848   0.953    40.6   136.1    21.8
2006 06 23    04 30.02   -06 27.4    0.0951   0.943    38.0   138.5    22.3
2006 06 24    04 34.61   -04 03.1    0.106    0.933    36.0   140.2    22.7

Gareth V. Williams           (C) Copyright 2006 MPC           M.P.E.C. 2006-L28

Read MPEC 2006-L27 Read MPEC 2006-L29


Our Web policy. Index to the CBAT/MPC/ICQ pages.


Valid HTML 4.01!